Regional Weather Roundup
Issued by NWS Charleston, SC

Current Version | Previous Version | Text Only | Print | Product List | Glossary Off
Versions: 1 2 3 4 5 6 7 8 9 10 11 12 13 14 15 16 17 18 19 20 21 22 23 24 25 26 27 28 29 30 31 32 33 34 35 36 37 38 39 40 41 42 43 44 45 46 47 48 49 50

000
ASUS42 KCHS 230327
RWRCHS

REGIONAL WEATHER ROUNDUP
NATIONAL WEATHER SERVICE CHARLESTON SC
1100 PM EDT TUE AUG 22 2017

NOTE: "FAIR" INDICATES FEW OR NO CLOUDS BELOW 12,000 FEET WITH NO
SIGNIFICANT WEATHER AND/OR OBSTRUCTIONS TO VISIBILITY.

NOT ALL STATIONS ARE QUALITY CONTROLLED. USE DATA WITH CAUTION...
ESPECIALLY DEWPOINT OBSERVATIONS.

SCZ027-030-031-034>040-042>050-230400-
...SOUTHEAST SOUTH CAROLINA...

CITY           SKY/WX    TMP DP  RH WIND       PRES   REMARKS
N CHARLESTON   CLEAR     79  75  87 W3        29.99S
WATERFRONT PRK   N/A     82  77  84 VRB2      29.84S HX  90
JOHNS ISLAND   FAIR      81  77  89 CALM      29.99F
PINOPOLIS        N/A     81  75  83 SW7       29.92S
MONCKS CORNER  FAIR      77  73  88 SW5       29.98F
SUMMERVILLE    FAIR      77  73  88 CALM      30.00F
BEAUFORT MCAS  PTCLDY    81  78  91 S3        29.99F
BEAUFORT ARPT  FAIR      81  75  83 S3        29.99S
HILTON HEAD IS CLEAR     82  77  83 CALM      30.00S HX  91
WALTERBORO     PTCLDY    77  73  88 S3        30.00F
ALLENDALE      NOT AVBL

...SOUTHERN MIDLANDS AND PEE DEE...

CITY           SKY/WX    TMP DP  RH WIND       PRES   REMARKS
GEORGETOWN     FAIR      73  73 100 CALM      30.00F
KINGSTREE      FAIR      77  73  88 CALM      29.98F
ORANGEBURG     CLEAR     78  75  90 SW6       29.99S
BARNWELL       FAIR      81  77  89 SW6       30.00S
AIKEN          FAIR      75  72  88 CALM      30.03S
MANNING        FAIR      79  72  78 CALM      29.99S
COLUMBIA       PTCLDY    83  72  69 CALM      29.97S
SUMTER         CLEAR     79  74  84 S5        29.96S
FLORENCE       CLEAR     77  75  93 S5        29.98F
MYRTLE BEACH   NOT AVBL
N MYRTLE BEACH PTCLDY    82  74  76 SW15      29.99S

$$

GAZ063-065-086>088-099>101-113>116-118-119-134>141-150-230400-
...SOUTHEAST GEORGIA...

CITY           SKY/WX    TMP DP  RH WIND       PRES   REMARKS
SAVANNAH ARPT  PTCLDY    79  76  90 S6        30.00F
HUNTER AAF     CLEAR     80  76  87 SW3       29.97F
FORT STEWART   PTCLDY    77  74  90 CALM      29.98S
STATESBORO     PTCLDY    79  72  78 S5        30.00S
SYLVANIA       MOCLDY    78  77  96 CALM      30.01S
CLAXTON        FAIR      79  76  90 CALM      30.00S

...CSRA...CENTRAL AND FAR SOUTHEAST GEORGIA...

CITY           SKY/WX    TMP DP  RH WIND       PRES   REMARKS
THOMSON        CLEAR     74  73  96 CALM      30.05R
AUGUSTA-BUSH   PTCLDY    77  75  93 CALM      29.98S
AUGUSTA-DANIEL CLEAR     81  72  74 CALM      30.00R
SWAINSBORO     FAIR      79  75  89 S3        30.01S
VIDALIA        CLEAR     79  77  94 S3        30.01S
EASTMAN        FAIR      77  77  99 CALM      30.03S
HAZLEHURST     FAIR      81  70  69 CALM      30.00R
ALMA           PTCLDY    77  74  90 CALM      30.00S
WAYCROSS       PTCLDY    78  75  91 CALM      30.00S
JESUP          FAIR      77  73  88 CALM      30.00S
BAXLEY         FAIR      77  75  94 CALM      30.01S
BRUNSWICK      CLEAR     75  72  88 CALM      30.01S FOG
SAINT SIMONS   CLEAR     84  75  74 S6        30.00S HX  92

$$

SCZ027-028-034-036>038-045-046-048>050-GAZ119-141-230400-
...LAKE AND SUPPLEMENTAL COASTAL OBSERVATIONS...

STATION/POSITION TIME  TEMP    WIND        PRES    WAVE   SWELL
                       AIR SEA DIR/SP/G            HT/PER HT/PER/DIR
                 (UTC) (F)     (DEG/KT/KT) (MB)    (FT/S) (FT/S/D)
WINYAH BAY       0245   80     250/  4     1016.0R
LAKE MURRAY      0320   83     230/  7/  9 1014.2
ACE BASIN NERRS  0245   81        CALM     1016.0S
FORT PULASKI     0300   83 87  220/  8/ 11 1016.0
SAPELO ISLAND    0300   83     180/  9     1016.0

$$

ANZ835-935-AMZ111-154-330-350-352-354-370-450-454-472-230400-
...C-MAN AND BUOY OBSERVATIONS...

STATION/POSITION TIME  TEMP    WIND        PRES    WAVE   SWELL
                       AIR SEA DIR/SP/G            HT/PER HT/PER/DIR
                 (UTC) (F)     (DEG/KT/KT) (MB)    (FT/S) (FT/S/D)
BUOY 41004       0310   83 84  210/ 10/ 14 1015.4
BUOY 41008       0250   84 85  170/ 12/ 14 1015.5F   3/10   3/110/10
FOLLY BEACH CMAN 0300   84     210/ 12/ 15 1016.1F
CAPERS NEARSHORE 0308   81 86  230/ 14/ 19 1015.1F
FRIPP NEARSHORE  0308   84     210/ 10/ 14 1015.3S


STATION/POSITION TIME  TEMP    WIND        PRES    WAVE   SWELL
                       AIR SEA DIR/SP/G            HT/PER HT/PER/DIR
                 (UTC) (F)     (DEG/KT/KT) (MB)    (FT/S) (FT/S/D)
5E ST. MARYS GA  0300      85                N/A     4/12   2/120/12
FRYING PAN BUOY  0310   83 84  210/ 12/ 14 1015.3
BUOY 41025       0250   84 85  220/ 17/ 21 1015.2F   5/ 9   3/130/ 9
CAPE LOOKOUT NC  0300   82     220/ 10/ 13 1015.2F
BUOY 41002       0250   82 84  150/  4/  6 1016.9F   4/ 9   3/110/ 9
BUOY 41010       0310   84 85  130/ 10/ 12 1016.1
ST AUGUSTINE FL  0300   83 83  140/  8/  9 1016.6S


$$




USA.gov is the U.S. government's official web portal to all federal, state and local government web resources and services.